Boone, IA

3:25 PM CST on November 20, 2017 (GMT -0600)
Boone Municipal

Weather History for KBNW - December, 2012

Change the Weather History Date:

Thursday, December 6, 2012

  Actual Average Record
Temperature  
Mean Temperature 44 °F -  
Max Temperature 50 °F 36 °F 63 °F (1975)
Min Temperature 38 °F 14 °F -11 °F (1972)
Degree Days  
Heating Degree Days 21    
Moisture  
Dew Point 36 °F    
Average Humidity 66    
Maximum Humidity 84    
Minimum Humidity 50    
Precipitation  
Precipitation 0.02 in - - ()
Sea Level Pressure  
Sea Level Pressure 29.93 in    
Wind  
Wind Speed 10 mph (WSW)    
Max Wind Speed 16 mph    
Max Gust Speed 23 mph    
Visibility 10 miles    
Events Rain    
Averages and records for this station are not official NWS values.
T = Trace of Precipitation, MM = Missing Value Source: NWS Daily Summary

Daily Weather History Graph

Daily Weather History Graph

Search for Another Location

Airport or City:

Trip Planner

Search our weather history database for the weather conditions in past years. The results will help you decide how hot, cold, wet, or windy it might be!

Date:

Astronomy

Dec. 06, 2012 Rise Set
Actual Time 7:29 AM CST 4:43 PM CST
Civil Twilight 6:58 AM CST 5:15 PM CST
Nautical Twilight 6:23 AM CST 5:50 PM CST
Astronomical Twilight 5:49 AM CST 6:24 PM CST
Moon No Moon Rise 12:16 PM CST (12/6)
Length of Visible Light 10h 17m
Length of Day
9h 14m
Waning Gibbous, 49% of the Moon is Illuminated
Dec 6
Waning Gibbous
Dec 13
New
Dec 19
First Quarter
Dec 28
Full
Jan 4
Last Quarter

Hourly Weather History & Observations

Time (CST) Temp. Windchill Dew Point Humidity Pressure Visibility Wind Dir Wind Speed Gust Speed Precip Events Conditions
12:15 AM 46.9 °F - 34.5 °F 62% 29.97 in 10.0 mi SSE 13.8 mph - N/A   Clear
12:35 AM 47.1 °F - 34.7 °F 62% 29.96 in 10.0 mi SSE 11.5 mph - N/A   Scattered Clouds
12:55 AM 47.3 °F - 34.7 °F 62% 29.95 in 10.0 mi SSE 16.1 mph - N/A   Scattered Clouds
1:15 AM 47.7 °F - 34.9 °F 61% 29.94 in 10.0 mi SSE 11.5 mph - N/A   Clear
1:35 AM 47.7 °F - 35.1 °F 62% 29.95 in 10.0 mi South 11.5 mph - N/A   Scattered Clouds
1:55 AM 47.7 °F - 35.1 °F 62% 29.94 in 10.0 mi South 10.4 mph - N/A   Scattered Clouds
2:15 AM 48.2 °F - 34.9 °F 60% 29.94 in 10.0 mi South 11.5 mph - N/A   Scattered Clouds
2:35 AM 48.4 °F - 34.7 °F 59% 29.93 in 10.0 mi SSE 16.1 mph 21.9 mph N/A   Clear
2:55 AM 48.2 °F - 34.7 °F 60% 29.94 in 10.0 mi South 9.2 mph - N/A   Clear
3:15 AM 48.2 °F - 34.2 °F 58% 29.92 in 10.0 mi South 11.5 mph - N/A   Clear
3:55 AM 48.7 °F - 33.3 °F 55% 29.90 in 10.0 mi South 11.5 mph - N/A   Clear
4:15 AM 50.4 °F - 32.4 °F 50% 29.90 in 10.0 mi South 15.0 mph 23.0 mph N/A   Clear
4:35 AM 50.2 °F - 32.0 °F 50% 29.90 in 10.0 mi South 16.1 mph 20.7 mph N/A   Clear
4:55 AM 50.2 °F - 32.0 °F 50% 29.89 in 10.0 mi South 12.7 mph 23.0 mph N/A   Clear
5:15 AM 50.0 °F - 32.2 °F 50% 29.89 in 10.0 mi South 13.8 mph 18.4 mph N/A   Clear
5:35 AM 50.0 °F - 32.0 °F 50% 29.90 in 10.0 mi South 15.0 mph 20.7 mph N/A   Clear
5:55 AM 50.0 °F - 32.0 °F 50% 29.89 in 10.0 mi South 12.7 mph 19.6 mph N/A   Scattered Clouds
6:15 AM 49.6 °F - 32.4 °F 51% 29.89 in 10.0 mi South 11.5 mph 17.3 mph N/A   Scattered Clouds
6:35 AM 49.6 °F - 32.4 °F 51% 29.89 in 10.0 mi South 12.7 mph 18.4 mph N/A   Clear
6:55 AM 49.6 °F - 32.5 °F 52% 29.90 in 10.0 mi South 9.2 mph - N/A   Clear
7:35 AM 49.3 °F - 32.9 °F 53% 29.91 in 10.0 mi SSW 10.4 mph - N/A   Scattered Clouds
7:55 AM 49.1 °F - 32.9 °F 54% 29.91 in 10.0 mi SSW 9.2 mph - N/A   Scattered Clouds
8:15 AM 48.7 °F - 32.9 °F 54% 29.91 in 10.0 mi SSW 6.9 mph - N/A   Clear
8:35 AM 49.1 °F - 33.3 °F 54% 29.91 in 10.0 mi SSW 9.2 mph - N/A   Clear
8:55 AM 49.1 °F - 33.4 °F 55% 29.92 in 10.0 mi SSW 9.2 mph - N/A   Scattered Clouds
9:15 AM 49.6 °F - 33.8 °F 54% 29.92 in 10.0 mi SW 8.1 mph - N/A   Scattered Clouds
9:35 AM 50.2 °F - 33.8 °F 53% 29.91 in 10.0 mi SW 8.1 mph - N/A   Mostly Cloudy
9:55 AM 50.0 °F - 33.8 °F 54% 29.91 in 10.0 mi SW 8.1 mph - N/A   Overcast
10:15 AM 48.9 °F - 36.3 °F 62% 29.91 in 10.0 mi SW 5.8 mph - N/A Rain Light Rain
10:55 AM 48.6 °F - 37.0 °F 64% 29.91 in 10.0 mi SW 4.6 mph - N/A   Light Drizzle
11:15 AM 49.1 °F - 37.6 °F 64% 29.91 in 10.0 mi WSW 5.8 mph - N/A   Light Drizzle
11:35 AM 49.1 °F - 37.4 °F 64% 29.91 in 10.0 mi WSW 4.6 mph - N/A   Light Drizzle
11:55 AM 48.4 °F - 38.3 °F 68% 29.91 in 10.0 mi SW 5.8 mph - N/A Rain Light Rain
12:15 PM 48.2 °F - 39.6 °F 72% 29.90 in 10.0 mi SW 8.1 mph - N/A Rain Light Rain
12:35 PM 48.2 °F - 40.5 °F 75% 29.90 in 10.0 mi WSW 5.8 mph - N/A   Light Drizzle
12:55 PM 48.4 °F - 40.5 °F 74% 29.90 in 10.0 mi WSW 5.8 mph - N/A   Drizzle
1:15 PM 48.6 °F - 39.7 °F 72% 29.89 in 10.0 mi West 4.6 mph - 0.01 in Rain Light Rain
1:35 PM 48.4 °F - 40.8 °F 75% 29.89 in 10.0 mi West 3.5 mph - 0.01 in Rain Rain
1:55 PM 48.9 °F - 41.2 °F 75% 29.89 in 10.0 mi NW 3.5 mph - 0.02 in   Light Drizzle
2:15 PM 48.6 °F - 40.3 °F 73% 29.90 in 10.0 mi NW 6.9 mph - N/A Rain Rain
2:35 PM 48.7 °F - 40.8 °F 74% 29.90 in 10.0 mi NNW 3.5 mph - N/A   Drizzle
2:55 PM 49.1 °F - 40.6 °F 73% 29.91 in 10.0 mi North 6.9 mph - N/A   Scattered Clouds
3:15 PM 48.7 °F - 40.1 °F 72% 29.91 in 10.0 mi NNW 10.4 mph - N/A   Scattered Clouds
3:35 PM 48.2 °F - 38.3 °F 69% 29.91 in 10.0 mi North 10.4 mph - N/A   Mostly Cloudy
3:55 PM 47.7 °F - 38.3 °F 70% 29.92 in 10.0 mi North 10.4 mph - N/A   Overcast
4:15 PM 46.9 °F - 37.6 °F 70% 29.93 in 10.0 mi North 10.4 mph - N/A   Overcast
4:55 PM 46.4 °F 41.9 °F 38.3 °F 73% 29.94 in 10.0 mi NNW 9.2 mph - N/A   Overcast
5:15 PM 45.7 °F 41.0 °F 37.9 °F 74% 29.94 in 10.0 mi NNW 9.2 mph - N/A   Overcast
6:35 PM 44.8 °F 41.6 °F 37.0 °F 74% 29.95 in 10.0 mi NNW 5.8 mph - N/A   Overcast
6:55 PM 44.8 °F 41.6 °F 36.9 °F 74% 29.95 in 10.0 mi NNW 5.8 mph - N/A   Overcast
7:15 PM 43.7 °F 39.7 °F 36.7 °F 76% 29.96 in 10.0 mi NNW 6.9 mph - N/A   Overcast
7:35 PM 43.2 °F 39.7 °F 36.5 °F 77% 29.96 in 10.0 mi NNW 5.8 mph - N/A   Overcast
7:55 PM 42.8 °F 40.1 °F 36.5 °F 78% 29.96 in 10.0 mi NNW 4.6 mph - N/A   Overcast
8:15 PM 43.0 °F 39.5 °F 36.5 °F 78% 29.96 in 10.0 mi NNW 5.8 mph - N/A   Overcast
8:35 PM 42.8 °F 39.3 °F 35.6 °F 76% 29.97 in 10.0 mi NNW 5.8 mph - N/A   Mostly Cloudy
8:55 PM 41.2 °F 38.2 °F 35.1 °F 79% 29.97 in 10.0 mi NNW 4.6 mph - N/A   Scattered Clouds
9:15 PM 40.6 °F 36.0 °F 34.7 °F 79% 29.97 in 10.0 mi NNW 6.9 mph - N/A   Clear
9:35 PM 39.9 °F 35.8 °F 34.2 °F 80% 29.97 in 10.0 mi NNW 5.8 mph - N/A   Clear
9:55 PM 39.0 °F - 33.8 °F 82% 29.97 in 10.0 mi Calm Calm - N/A   Scattered Clouds
10:15 PM 40.1 °F - 34.5 °F 80% 29.98 in 10.0 mi Calm Calm - N/A   Clear
10:35 PM 38.5 °F 35.0 °F 33.6 °F 83% 29.98 in 10.0 mi NNW 4.6 mph - N/A   Clear
10:55 PM 38.3 °F 33.2 °F 33.8 °F 84% 29.98 in 10.0 mi NNW 6.9 mph - N/A   Mostly Cloudy
11:15 PM 39.4 °F 34.5 °F 34.5 °F 83% 29.98 in 10.0 mi North 6.9 mph - N/A   Overcast
11:35 PM 39.6 °F 33.5 °F 34.3 °F 82% 29.99 in 10.0 mi NNW 9.2 mph - N/A   Overcast
11:55 PM 39.9 °F 34.5 °F 34.2 °F 80% 29.99 in 10.0 mi NNW 8.1 mph - N/A   Overcast